Regional Weather Roundup
Issued by NWS

Home | Current Version | Previous Version | Text Only | Print | Product List | Glossary Off
Versions: 1 2 3 4 5 6 7 8 9 10 11 12 13 14 15 16 17 18 19 20 21 22 23 24 25 26 27 28 29 30 31 32 33 34 35 36 37 38 39 40 41 42 43 44 45 46 47 48 49 50

000
ASUS43 KMPX 221501
RWRMN
WEATHER ROUNDUP FOR MINNESOTA
NATIONAL WEATHER SERVICE TWIN CITIES/CHANHASSEN MN
900 AM CST MON DEC 22 2014


NOTE: "FAIR" INDICATES FEW OR NO CLOUDS BELOW 12,000 FEET WITH NO
SIGNIFICANT WEATHER AND/OR OBSTRUCTIONS TO VISIBILITY. N/A MEANS
CURRENT SKY AND/OR WEATHER CONDITIONS ARE NOT AVAILABLE.

MNZ060>063-068>070-221600-
   Twin Cities Metro

CITY           SKY/WX    TMP DP  RH WIND       PRES   REMARKS
TWIN CITIES    DRIZZLE   36  34  92 SE9       29.66S FOG
ST PAUL        CLOUDY    36  35  96 SE16G23   29.68S FOG
CRYSTAL        CLOUDY    38  35  89 SE12      29.64F FOG
LAKEVILLE      LGT RAIN  34  34 100 SE9       29.65S WCI  26
EDEN PRAIRIE   LGT RAIN  37  34  89 SE14      29.63F FOG
SOUTH ST PAUL  LGT RAIN  37  35  94 SE6       29.67S
LAKE ELMO      DRIZZLE   36  36 100 SE13G20   29.68F
$$
MNZ001>005-007-008-013>017-022>024-027-028-221600-
   Northwest Minnesota

CITY           SKY/WX    TMP DP  RH WIND       PRES   REMARKS
BEMIDJI        CLOUDY    34  34  99 E9        29.57S FOG     WCI  27
HALLOCK        CLOUDY    36  34  93 E10       29.57S FOG
ROSEAU         CLOUDY    34  30  86 E9        29.60S FOG     WCI  26
WARROAD        LGT SNOW  34  28  80 E8        29.62S WCI  27
THIEF RVR FALL CLOUDY    36  34  93 E12       29.56S
CROOKSTON      CLOUDY    36  34  93 E8        29.55S
FOSSTON        CLOUDY    34  32  93 E6        29.55S FOG     WCI  29
DETROIT LAKES  CLOUDY    36  36 100 SE10      29.52S FOG
MOORHEAD       CLOUDY    37  37 100 SE6       29.51S FOG
PARK RAPIDS    CLOUDY    36  35  96 SE13      29.54F FOG
MAHNOMEN       CLOUDY    35  34  97 E6        29.53S WCI  30
$$
MNZ006-009>011-018-025>026-221600-
   North Central Minnesota

CITY           SKY/WX    TMP DP  RH WIND       PRES   REMARKS
BAUDETTE       CLOUDY    33  32  96 E9        29.62S WCI  25
FLAG ISLAND    CLOUDY    34  32  93 E7        29.62S WCI  28
INTL FALLS     LGT SNOW  33  32  96 E7        29.65S FOG     WCI  27
WASKISH        CLOUDY    36  34  93 CALM      29.61S FOG
BIG FORK       FLURRIES  36  34  93 SE6       29.63S
LONGVILLE      DRIZZLE   36  36 100 SE8       29.59S
GRAND RAPIDS   CLOUDY    34  34 100 SE6       29.63S WCI  29
CRANE LAKE     LGT RAIN  32  32 100 CALM      29.70S
ORR            LGT SNOW  34  30  86 SE5       29.64S WCI  30
COOK           LGT SNOW  34  32  93 SE6       29.67S WCI  29
WALKER         CLOUDY    34  33  99 E5        29.57F FOG     WCI  30
$$
MNZ012-019>021-037-221600-
   Northeast Minnesota

CITY           SKY/WX    TMP DP  RH WIND       PRES   REMARKS
DULUTH         SNOW      33  32  96 E12       29.69S VSB 1/4 WCI  24
ELY            LGT SNOW  34  32  93 SE7       29.70S WCI  28
HIBBING        LGT SNOW  34  31  88 SE9       29.66S FOG     WCI  27
EVELETH        LGT SNOW  32  32 100 SE7       29.69S WCI  26
DULUTH HARBOR  MIX PCPN  36  34  93 CALM      29.73S
TWO HARBORS    CLOUDY    36  30  80 NE5       29.71S
SILVER BAY     MIX PCPN  34  34 100 CALM      29.72F
GRAND MARAIS     N/A     37  34  89 S10       29.80S
G MARAIS ARPRT MIX PCPN  30  28  93 SE3       29.75F VSB 1/4
$$
MNZ029>031-032-039>041-046>048-054>057-064-221600-
   West Central Minnesota

CITY           SKY/WX    TMP DP  RH WIND       PRES   REMARKS
FERGUS FALLS   DRIZZLE   37  37 100 SE13      29.53S
WHEATON        DRIZZLE   34  34 100 SE12      29.50F WCI  25
MORRIS         LGT SNOW  37  36  93 SE14      29.49F
ALEXANDRIA     CLOUDY    36  35  96 SE12      29.54S FOG
ELBOW LAKE     DRIZZLE   36  36 100 SE14      29.50S
WADENA         DRIZZLE   34  34 100 SE10      29.54S WCI  26
GLENWOOD       DRIZZLE   36  36 100 SE13      29.54S
APPLETON       DRIZZLE   37  37 100 SE12      29.50S
BENSON         MIX PCPN  37  36  93 S15       29.52S
ORTONVILLE     LGT RAIN  36  34  93 SE13      29.48S
MADISON        CLOUDY    39  39 100 SE15      29.49S FOG
WILLMAR        RAIN      37  36  93 SE16      29.55F
$$
MNZ033>034-036-042>043-049>051-058-059-221600-
   Central Minnesota

CITY           SKY/WX    TMP DP  RH WIND       PRES   REMARKS
ST CLOUD       FOG       39  35  86 SE14      29.60F VSB 3/4
SAUK CENTRE    DRIZZLE   36  36 100 SE14      29.56S
PAYNESVILLE    LGT RAIN  34  34 100 E10G18    29.57F WCI  26
AITKIN         CLOUDY    37  34  87 SE9       29.61S HAZE
PINE RIVER     DRIZZLE   36  36 100 SE8       29.63S
BRAINERD       CLOUDY    36  35  96 SE9       29.60S FOG
STAPLES        CLOUDY    36  36 100 SE7       29.56S FOG
LONG PRAIRIE   CLOUDY    34  34 100 SE10G17   29.56S FOG     WCI  26
LITTLE FALLS   MIX PCPN  34  34 100 SE9       29.59S VSB 1   WCI  26
LITCHFIELD     DRIZZLE   37  37 100 SE12G17   29.58F
BUFFALO        DRIZZLE   37  35  93 SE10G17   29.63S
MAPLE LAKE     CLOUDY    37  37  98 SE10      29.61F FOG
$$
MNZ037-044-045-052-053-221600-
   East Central Minnesota

CITY           SKY/WX    TMP DP  RH WIND       PRES   REMARKS
PRINCETON      CLOUDY    37  36  93 SE12G18   29.64S FOG
MORA           CLOUDY    32  32 100 SE9       29.67S WCI  24
CAMBRIDGE      CLOUDY    37  30  75 SE7       29.64S HAZE
RUSH CITY      CLOUDY    35  34  94 SE9       29.67S WCI  28
MOOSE LAKE     CLOUDY    34  34 100 SE5       29.66S FOG     WCI  30
HINCKLEY       CLOUDY    36  36 100 CALM      29.67S FOG
CLOQUET        SNOW      34  32  93 E5        29.68S VSB 1/2 WCI  30
MCGREGOR       CLOUDY    34  34 100 SE9       29.64S WCI  26
$$
MNZ071>073-080-081-089-090-097-098-221600-
   Southwest Minnesota

CITY           SKY/WX    TMP DP  RH WIND       PRES   REMARKS
MONTEVIDEO     CLOUDY    37  37 100 S13       29.52S FOG
GRANITE FALLS  CLOUDY    38  38  98 SE13      29.53F FOG
CANBY          LGT RAIN  37  37  98 SE9       29.48F
MARSHALL       CLOUDY    39  36  87 SE14      29.49F
REDWOOD FALLS  LGT RAIN  39  38  96 SE17      29.54F FOG
OLIVIA         CLOUDY    37  36  93 SE14      29.54F FOG
PIPESTONE      DRIZZLE   37  37 100 S13       29.44F
WINDOM         RAIN      37  37 100 SE16G22   29.53S
WORTHINGTON    CLOUDY    37 -11  12 SE17G23   29.50F
JACKSON        LGT RAIN  37  36  93 SE16      29.54F
TRACY          DRIZZLE   39  38  95 SE13      29.50F
SLAYTON        LGT RAIN  37  37 100 SE18G24   29.49F
$$
MNZ065>067-074>077-082>085-091>093-221600-
   South Central Minnesota

CITY           SKY/WX    TMP DP  RH WIND       PRES   REMARKS
MANKATO        CLOUDY    37  34  87 SE16G23   29.61S
NEW ULM        DRIZZLE   37  37 100 SE13      29.57F
FAIRMONT       CLOUDY    37  34  87 SE17      29.57S
GLENCOE        RAIN      38  38  99 SE15      29.60S
FARIBAULT      DRIZZLE   36  36 100 SE13G22   29.65S
OWATONNA       LGT RAIN  36  34  93 SE16      29.64F
WASECA         LGT RAIN  36  36 100 SE17G23   29.64S
ALBERT LEA     DRZL/FOG  36  36 100 SE15G21   29.63S VSB 1/2
$$
MNZ078>079-086>088-094>096-221600-
   Southeast Minnesota

CITY           SKY/WX    TMP DP  RH WIND       PRES   REMARKS
ROCHESTER      CLOUDY    34  32  92 SE15      29.69S FOG     WCI  24
RED WING       CLOUDY    36  36 100 SE9       29.69F FOG
STANTON        CLOUDY    37  34  87 SE13G18   29.65S FOG
DODGE CENTER   MIX PCPN  34  34 100 SE17      29.66S VSB 1   WCI  23
WINONA         CLOUDY    36  32  87 SE9       29.74F FOG
AUSTIN         RAIN      34  34 100 SE12      29.66S WCI  25
PRESTON        CLOUDY    33  32  96 SE10      29.70F FOG     WCI  25
$$
ABBREVIATIONS USED IN REMARKS
   TC - TEMPERATURES IN CELSIUS
  WCI - WIND CHILL INDEX
   HX - HEAT INDEX
  VSB - VISIBILITY
$$



USA.gov is the U.S. government's official web portal to all federal, state and local government web resources and services.